Flight Track Log - Related Links

Times and Time Zones

All times are in EDT time to prevent confusion due to time zone crossing. See the CHQ6047 flight status page for this flight to view local times or setup timezone preferences in your user account.

Time Position Orientation Groundspeed Altitude Reporting Facility
EDT Latitude Longitude Course Direction KTS MPH feet Rate Location/Type
Tue 01:37:20 PM 40.7500 -73.8333 90° East 168 193 1,600  Level New York TRACON
Tue 01:38:20 PM 40.7500 -73.7833 90° East 232 267 3,500 2,087 Climbing New York TRACON
Tue 01:40:24 PM 40.8650 -73.6975 29° Northeast 251 289 8,000 2,205 Climbing Boston Center
Tue 01:41:25 PM 40.9328 -73.6517 27° Northeast 267 307 10,300 2,213 Climbing Boston Center
Tue 01:42:26 PM 41.0094 -73.5975 28° Northeast 284 327 12,500 1,869 Climbing Boston Center
Tue 01:43:27 PM 41.0861 -73.5517 24° Northeast 299 344 14,100 1,805 Climbing Boston Center
Tue 01:44:29 PM 41.1711 -73.5000 25° Northeast 310 357 16,200 1,805 Climbing Boston Center
Tue 01:45:30 PM 41.2522 -73.4519 24° Northeast 315 362 17,800 1,525 Climbing Boston Center
Tue 01:46:31 PM 41.3258 -73.4072 25° Northeast 329 379 19,300 1,610 Climbing Boston Center
Tue 01:47:33 PM 41.4319 -73.3419 25° Northeast 345 397 21,100 1,659 Climbing Boston Center
Tue 01:48:34 PM 41.5239 -73.2900 23° Northeast 358 412 22,700 1,426 Climbing Boston Center
Tue 01:49:35 PM 41.6039 -73.3036 353° North 349 402 24,000 1,131 Climbing Boston Center
Tue 01:50:36 PM 41.7203 -73.3150 356° North 348 400 25,000 488 Climbing Boston Center
Tue 01:51:38 PM 41.8297 -73.3211 358° North 384 442 25,000  Level Boston Center
Tue 01:52:39 PM 41.9414 -73.3286 357° North 395 455 25,000  Level Boston Center
Tue 01:53:40 PM 42.0528 -73.3369 357° North 397 457 25,000  Level Boston Center
Tue 01:54:41 PM 42.1617 -73.3442 357° North 394 453 25,000  Level Boston Center
Tue 01:55:43 PM 42.2653 -73.3511 357° North 392 451 25,000  Level Boston Center
Tue 01:56:44 PM 42.3781 -73.3636 355° North 389 448 25,000  Level Boston Center
Tue 01:57:45 PM 42.4786 -73.4000 345° North 372 428 25,000  Level Boston Center
Tue 01:58:46 PM 42.5800 -73.4333 346° North 372 428 25,000  Level Boston Center
Tue 01:59:48 PM 42.6806 -73.4653 347° North 371 427 25,000  Level Boston Center
Tue 02:00:49 PM 42.7828 -73.4897 350° North 372 428 25,000  Level Boston Center
Tue 02:01:50 PM 42.8892 -73.4864 North 379 436 25,000  Level Boston Center
Tue 02:02:52 PM 43.0156 -73.4886 359° North 379 436 25,000  Level Boston Center
Tue 02:03:53 PM 43.1211 -73.4900 359° North 379 436 25,000  Level Boston Center
Tue 02:04:54 PM 43.2272 -73.4925 359° North 379 436 25,000  Level Boston Center
Tue 02:05:56 PM 43.3325 -73.4947 359° North 379 436 25,000  Level Boston Center
Tue 02:06:57 PM 43.4389 -73.4969 359° North 380 437 25,000  Level Boston Center
Tue 02:07:58 PM 43.5450 -73.4986 359° North 380 437 25,000  Level Boston Center
Tue 02:09:00 PM 43.6511 -73.5006 359° North 381 438 25,000  Level Boston Center
Tue 02:10:01 PM 43.7575 -73.5019 359° North 382 440 25,000  Level Boston Center
Tue 02:11:02 PM 43.8619 -73.5044 359° North 381 438 25,000  Level Boston Center
Tue 02:12:04 PM 43.9847 -73.5072 359° North 374 430 25,000  Level Boston Center
Tue 02:13:05 PM 44.0864 -73.5078 360° North 368 423 25,000  Level Boston Center
Tue 02:14:07 PM 44.1867 -73.5117 358° North 366 421 25,000  Level Boston Center
Tue 02:15:08 PM 44.2858 -73.5133 359° North 359 413 25,000  Level Boston Center
Tue 02:16:09 PM 44.3850 -73.5150 359° North 359 413 25,000  Level Boston Center
Tue 02:17:11 PM 44.4839 -73.5172 359° North 357 411 25,000  Level Boston Center
Tue 02:18:12 PM 44.5828 -73.5194 359° North 357 411 25,000 -689 Level Boston Center
Tue 02:19:13 PM 44.6822 -73.5222 359° North 356 410 23,600 -2,244 Descending Boston Center
Tue 02:20:15 PM 44.7861 -73.5333 356° North 366 421 20,400 -3,849 Descending Boston Center
Tue 02:20:59 PM 44.8833 -73.5333 360° North 390 449 16,800 -3,923 Descending Montreal Center
Tue 02:21:59 PM 44.9833 -73.5500 353° North 390 449 13,600 -3,150 Descending Montreal Center
Tue 02:22:59 PM 45.0833 -73.5500 360° North 380 437 10,500 -1,850 Descending Montreal Center
Tue 02:23:59 PM 45.1833 -73.5667 353° North 320 368 9,900 -1,100 Descending Montreal Center
Tue 02:24:59 PM 45.2667 -73.5667 360° North 290 334 8,300 -1,750 Descending Montreal Center
Tue 02:25:59 PM 45.3167 -73.6333 317° Northwest 260 299 6,400 -1,850 Descending Montreal Center
Tue 02:26:59 PM 45.3333 -73.7333 283° West 230 265 4,600 -1,650 Descending Montreal Center
Tue 02:27:59 PM 45.2833 -73.8000 223° Southwest 230 265 3,100 -800 Descending Montreal Center
Tue 02:28:59 PM 45.2667 -73.8667 250° West 190 219 3,000 -50 Descending Montreal Center
Tue 02:29:59 PM 45.3000 -73.9167 313° West 200 230 3,000 -300 Level Montreal Center
Tue 02:30:59 PM 45.3667 -73.8667 28° Northeast 230 265 2,400 -800 Descending Montreal Center
Tue 02:31:59 PM 45.4000 -73.8167 46° Northeast 170 196 1,400 -900 Descending Montreal Center
Tue 02:32:59 PM 45.4333 -73.7667 46° Northeast 140 161 600 -550 Descending Montreal Center
Tue 02:33:59 PM 45.4500 -73.7500 35° Northeast 140 161 300 -300 Descending Montreal Center

Login

Don't have an account? Register now (free) for customized features, flight alerts, and more!